Orbital Elements at Epoch 2459000.5 (2020-May-31.0) TDB
Reference: JPL 11 (heliocentric ecliptic J2000)
Element | Value | Uncertainty (1-sigma) | Units |
e | .05182439640789711 | 8.1146e-08 | |
a | 3.086565145478736 | 4.3064e-08 | au |
q | 2.926605769840648 | 2.7768e-07 | au |
i | 10.77088122396484 | 7.6486e-06 | deg |
node | 37.18941796059337 | 2.637e-05 | deg |
peri | 306.8768992358226 | 6.46e-05 | deg |
M | 250.0115240764744 | 5.9433e-05 | deg |
tp | 2459605.640586481841 (2022-Jan-26.14058648) | 0.00032902 | TDB |
period | 1980.667604530979 5.42 | 4.1451e-05 1.135e-07 | d yr |
n | .1817568981168084 | 3.8038e-09 | deg/d |
Q | 3.246524521116825 | 4.5295e-08 | au |
|
| | Orbit Determination Parameters
Additional Information
|